Date,TemperatureHighF,TemperatureAvgF,TemperatureLowF,DewpointHighF,DewpointAvgF,DewpointLowF,HumidityHigh,HumidityAvg,HumidityLow,PressureMaxIn,PressureMinIn,WindSpeedMaxMPH,WindSpeedAvgMPH,GustSpeedMaxMPH,PrecipitationSumIn
2013-1-1,39.4,32.1,21.9,38.9,28.3,16.9,98,86,75,29.53,29.30,7,1,11,0.00
2013-1-2,40.6,28.7,17.4,29.3,21.3,15.7,95,76,48,29.56,29.44,5,1,8,0.00
2013-1-3,50.4,32.0,21.2,32.3,22.3,19.0,98,72,36,29.71,29.53,6,0,8,0.00
2013-1-4,50.9,34.3,18.7,32.4,20.8,17.5,97,63,32,29.71,29.53,7,1,10,0.00
2013-1-5,50.4,39.8,27.0,30.6,26.5,20.2,95,61,39,29.53,29.42,8,1,11,0.00
2013-1-6,52.7,34.9,23.5,29.6,19.9,14.5,94,59,28,29.68,29.53,7,1,10,0.00
2013-1-7,55.2,37.0,18.9,29.5,22.4,16.7,95,60,33,29.56,29.36,7,1,11,0.00
2013-1-8,58.6,43.8,29.1,47.7,33.6,23.0,98,71,36,29.44,29.30,9,1,13,0.54
2013-1-9,55.6,51.6,48.4,49.6,43.7,34.3,98,77,45,29.56,29.39,7,2,12,0.04
2013-1-10,58.3,53.5,49.3,57.7,51.2,41.8,98,92,66,29.39,29.09,8,1,10,0.21
2013-1-11,70.7,58.2,45.9,47.5,43.2,38.6,98,62,33,29.12,28.94,10,4,17,0.00
2013-1-12,61.3,39.3,26.6,47.3,25.4,17.0,90,61,27,29.36,29.09,11,3,17,0.38
2013-1-13,34.0,25.7,18.0,17.1,11.1,6.2,81,54,40,29.65,29.30,0,0,0,0.00
2013-1-14,37.6,27.7,17.1,17.1,11.7,7.5,89,52,35,29.77,29.56,8,2,16,0.00
2013-1-15,36.3,27.6,19.2,17.1,12.8,6.7,80,56,35,29.59,29.44,7,2,10,0.00
2013-1-16,51.3,31.5,15.1,19.6,15.7,10.1,91,57,27,29.47,29.36,7,1,10,0.00
2013-1-17,56.7,41.7,24.1,29.0,24.5,18.0,84,53,31,29.71,29.47,9,3,14,0.00
2013-1-18,60.3,48.3,24.3,34.4,27.2,21.8,98,47,29,29.71,29.42,10,3,14,0.00
2013-1-19,68.5,50.7,33.8,34.4,30.5,27.8,84,49,26,29.44,29.33,7,2,11,0.00
2013-1-20,65.3,46.1,32.4,36.6,27.2,11.2,87,51,34,29.56,29.36,12,3,19,0.00
2013-1-21,44.4,33.1,25.0,15.0,11.2,8.6,51,40,30,29.68,29.53,8,2,12,0.00
2013-1-22,55.9,38.1,22.5,26.5,19.5,11.0,71,49,31,29.56,29.42,8,1,10,0.00
2013-1-23,65.1,44.6,27.0,40.3,31.4,20.8,88,63,35,29.50,29.36,8,0,10,0.00
2013-1-24,46.2,40.3,36.5,27.1,19.0,16.5,50,42,38,29.53,29.36,8,3,12,0.00
2013-1-25,52.7,40.4,32.2,26.9,22.8,18.4,67,50,36,29.50,29.36,5,1,10,0.00
2013-1-26,55.9,44.6,29.5,33.6,27.3,22.8,83,53,35,29.53,29.33,10,3,15,0.00
2013-1-27,62.6,55.5,47.1,58.8,51.2,33.6,98,86,58,29.36,29.12,10,4,17,0.00
2013-1-28,75.7,69.3,59.5,63.1,60.0,55.4,98,73,50,29.21,29.00,12,6,17,0.00
2013-1-29,72.7,59.5,42.8,61.1,54.5,35.1,98,85,58,29.00,28.74,13,4,20,0.94
2013-1-30,43.2,36.5,25.7,35.1,23.5,17.0,93,61,40,29.33,28.88,11,4,13,0.00
2013-1-31,53.6,33.4,22.8,34.7,19.0,4.5,98,61,30,29.71,29.27,12,3,20,0.00
2013-2-1,46.4,31.0,18.1,20.9,9.9,-1.1,70,42,29,29.71,29.42,10,2,13,0.00
2013-2-2,62.6,40.8,24.4,30.4,24.9,19.9,89,58,28,29.53,29.42,7,1,10,0.00
2013-2-3,59.5,47.3,32.0,29.0,24.2,20.2,76,44,25,29.56,29.18,8,2,12,0.00
2013-2-4,70.0,56.7,40.6,35.9,29.3,24.8,63,36,23,29.24,29.09,8,2,14,0.00
2013-2-5,71.8,48.7,30.7,37.5,30.5,24.2,96,55,23,29.33,29.18,5,0,7,0.00
2013-2-6,66.6,51.6,33.4,46.9,37.1,29.0,91,61,37,29.33,29.15,13,4,20,0.00
2013-2-7,63.3,53.2,43.3,55.6,46.7,32.8,98,79,62,29.42,29.09,10,2,15,0.00
2013-2-8,53.4,41.2,34.0,33.1,29.6,25.5,88,66,38,29.59,29.42,8,2,12,0.00
2013-2-9,49.6,42.0,34.5,49.1,36.9,29.9,98,83,60,29.42,29.00,12,4,16,0.09
2013-2-10,63.9,54.0,35.6,56.6,33.4,19.7,98,53,25,29.33,28.91,10,4,17,0.22
2013-2-11,57.4,41.6,29.3,26.4,22.4,18.8,77,49,26,29.50,29.33,7,1,10,0.00
2013-2-12,42.8,39.0,31.3,39.1,31.4,23.1,98,76,48,29.39,29.24,7,1,11,0.28
2013-2-13,58.5,43.8,33.8,41.4,32.9,25.0,98,71,32,29.33,29.21,6,2,9,0.00
2013-2-14,62.2,46.7,28.9,32.1,27.2,23.5,88,50,30,29.47,29.24,9,2,14,0.00
2013-2-15,46.8,37.5,29.1,27.6,15.5,8.4,63,42,27,29.68,29.47,9,3,15,0.00
2013-2-16,47.7,37.1,23.0,23.5,14.6,9.8,67,41,28,29.65,29.33,8,2,11,0.00
2013-2-17,70.7,53.7,32.4,31.9,26.4,17.2,72,38,23,29.33,29.03,11,4,16,0.00
2013-2-18,63.3,54.7,37.4,46.8,33.1,18.3,64,45,32,29.42,28.91,14,6,23,0.00
2013-2-19,56.1,41.4,25.5,24.8,19.5,15.9,81,44,27,29.59,29.42,7,1,10,0.00
2013-2-20,40.1,37.3,33.4,37.3,30.4,16.3,98,80,39,29.53,29.24,7,1,12,0.37
2013-2-21,40.5,36.2,25.9,39.9,34.4,14.8,98,93,61,29.27,28.97,9,2,12,1.09
2013-2-22,41.7,30.1,20.8,18.0,15.3,13.1,80,55,37,29.42,29.24,8,2,10,0.00
2013-2-23,50.9,34.0,19.9,24.0,18.5,13.2,85,57,31,29.39,29.21,5,0,8,0.00
2013-2-24,62.6,45.4,25.7,34.4,29.0,21.3,92,57,34,29.24,29.03,11,2,17,0.00
2013-2-25,46.9,42.3,37.9,43.5,36.8,28.0,98,83,51,29.09,28.77,13,4,19,1.31
2013-2-26,44.2,38.8,30.4,39.0,30.5,25.0,98,74,52,29.18,28.80,10,4,16,0.21
2013-2-27,50.7,38.6,30.4,30.2,24.9,19.5,92,60,36,29.42,29.18,10,3,17,0.00
2013-2-28,49.8,38.7,28.6,30.1,24.0,20.2,92,58,38,29.47,29.42,10,3,13,0.00
2013-3-1,42.1,36.6,32.2,22.7,18.1,11.9,56,47,39,29.56,29.44,9,4,16,0.00
2013-3-2,51.3,37.4,24.4,19.2,15.8,11.7,68,42,27,29.65,29.42,8,2,13,0.00
2013-3-3,66.6,49.4,28.0,29.2,24.1,15.9,67,39,25,29.44,28.91,11,5,15,0.00
2013-3-4,76.5,59.6,46.6,37.4,33.9,25.9,55,40,23,29.30,28.85,14,4,19,0.00
2013-3-5,52.3,42.5,34.0,38.8,20.8,13.9,90,44,28,29.62,29.30,12,5,18,0.04
2013-3-6,54.7,41.4,27.9,21.4,17.4,12.4,55,39,26,29.71,29.44,7,1,10,0.00
2013-3-7,68.5,52.8,34.5,29.3,25.0,18.2,65,36,23,29.47,29.33,12,4,17,0.00
2013-3-8,59.7,54.2,47.1,38.1,32.0,25.2,56,43,36,29.44,29.21,12,5,18,0.00
2013-3-9,64.8,60.7,55.0,64.0,49.6,31.4,98,70,35,29.21,28.91,12,4,19,0.21
2013-3-10,64.6,43.1,33.6,64.0,33.9,18.9,98,70,54,29.30,28.91,10,4,14,5.29
2013-3-11,55.8,40.2,28.2,22.8,19.2,13.5,77,45,25,29.33,29.24,8,2,13,4.14
2013-3-12,62.8,47.7,33.1,33.0,24.5,16.6,70,43,25,29.59,29.30,8,2,14,0.00
2013-3-13,61.3,45.0,28.4,26.4,22.0,17.4,82,43,25,29.74,29.56,6,1,10,0.00
2013-3-14,81.0,59.2,35.1,39.1,31.6,21.0,67,38,21,29.56,29.33,8,2,13,0.00
2013-3-15,85.8,68.7,50.4,43.4,40.3,36.7,74,39,20,29.36,29.03,9,3,15,0.00
2013-3-16,78.3,63.0,48.7,44.5,39.1,33.8,57,42,30,29.12,29.00,11,4,17,0.00
2013-3-17,48.7,45.7,42.3,45.0,40.3,34.0,94,82,57,29.12,28.97,11,3,16,0.00
2013-3-18,65.5,50.3,38.5,47.7,33.5,18.4,96,59,24,29.33,28.97,8,2,12,0.00
2013-3-19,63.1,49.1,34.9,29.9,24.8,19.8,75,42,25,29.53,29.27,9,2,15,0.00
2013-3-20,57.4,45.3,33.1,32.9,22.7,14.6,88,45,25,29.65,29.33,10,2,13,0.00
2013-3-21,44.2,40.7,38.1,35.0,23.8,14.9,83,52,32,29.33,29.00,10,3,17,0.00
2013-3-22,48.9,44.5,39.7,45.5,37.2,32.2,98,77,53,29.21,29.06,6,2,10,0.29
2013-3-23,53.2,45.9,40.8,52.7,43.5,34.5,98,92,74,29.18,29.00,8,2,12,0.00
2013-3-24,46.8,36.9,29.8,46.2,23.4,13.2,98,60,36,29.44,29.06,13,5,19,0.04
2013-3-25,41.0,33.9,25.0,19.3,15.2,11.9,64,47,34,29.62,29.42,11,4,17,0.00
2013-3-26,56.7,38.9,21.9,22.2,18.4,12.8,81,47,26,29.71,29.50,7,1,9,0.00
2013-3-27,69.3,52.7,34.9,30.9,24.4,17.8,52,35,23,29.53,29.33,10,4,22,0.00
2013-3-28,54.7,51.6,50.4,26.7,25.5,24.9,37,36,32,29.42,29.39,4,1,6,0.00
2013-3-30,79.3,71.7,62.2,61.5,54.6,50.6,92,57,40,29.39,29.09,8,2,12,0.00
2013-3-31,75.0,63.4,49.8,69.9,45.2,35.4,98,57,27,29.27,29.12,10,2,17,0.00
2013-4-1,63.7,52.1,45.9,52.9,37.3,24.2,98,60,36,29.42,29.24,10,4,17,0.00
2013-4-2,47.5,44.3,40.3,46.4,38.5,23.7,96,82,43,29.50,29.42,10,4,16,0.62
2013-4-3,55.6,43.9,40.3,55.0,35.6,25.1,98,74,48,29.50,29.39,8,2,12,0.65
2013-4-4,63.3,54.7,44.2,56.1,40.0,27.3,98,64,28,29.44,29.36,7,1,10,0.18
2013-4-5,73.0,58.9,42.1,54.7,39.8,34.3,98,56,26,29.47,29.21,7,2,12,0.00
2013-4-6,79.7,66.5,56.7,50.2,43.5,39.3,70,45,30,29.21,29.06,12,4,20,0.00
2013-4-7,67.5,63.4,55.4,66.6,55.6,49.3,97,76,66,29.18,29.00,11,3,17,0.00
2013-4-8,75.7,69.4,64.9,66.9,57.5,54.7,94,67,49,29.03,28.91,10,3,16,0.00
2013-4-9,79.3,70.8,44.2,61.1,55.5,36.1,74,59,45,29.09,28.91,13,5,19,0.00
2013-4-10,47.1,42.1,37.4,45.8,38.4,27.6,96,87,67,29.24,29.09,9,4,14,0.54
2013-4-11,59.4,45.1,35.1,35.2,26.3,21.3,83,50,29,29.21,29.06,8,2,13,0.00
2013-4-12,68.4,52.0,38.5,43.0,29.4,22.9,94,46,24,29.30,29.12,8,1,11,0.00
2013-4-13,76.5,61.0,49.3,57.8,39.9,28.6,95,49,26,29.33,29.00,10,3,17,0.17
2013-4-14,82.9,69.2,56.7,55.4,45.1,37.0,67,44,30,29.00,28.80,12,4,22,0.00
2013-4-15,77.7,63.7,53.6,50.8,39.3,30.4,59,41,30,29.15,28.97,11,5,17,0.00
2013-4-16,61.5,55.0,52.7,49.4,45.4,38.0,84,70,56,29.27,29.12,7,2,10,0.00
2013-4-17,82.4,70.8,54.3,78.7,60.1,48.5,96,71,44,29.18,28.82,16,4,24,0.69
2013-4-18,86.0,50.4,39.6,84.7,38.3,19.9,98,66,42,29.36,28.82,10,5,18,1.47
2013-4-19,66.0,49.4,34.5,33.3,25.2,20.2,64,41,24,29.44,29.30,9,3,14,0.00
2013-4-20,73.8,58.8,42.1,50.5,35.6,29.4,95,48,21,29.44,29.30,11,2,17,0.00
2013-4-21,72.3,61.9,53.6,43.5,36.7,33.4,65,41,26,29.47,29.36,10,4,19,0.00
2013-4-22,77.4,64.3,47.1,50.1,43.0,37.0,84,49,31,29.39,29.12,11,4,22,0.00
2013-4-23,64.0,49.7,39.0,61.0,45.2,25.1,96,85,37,29.47,29.09,10,3,15,0.10
2013-4-24,63.0,47.9,35.6,32.4,26.4,20.2,83,47,24,29.59,29.44,8,2,12,0.00
2013-4-25,72.5,57.4,36.1,47.6,32.0,26.3,94,45,22,29.62,29.42,7,2,11,0.00
2013-4-26,82.6,63.2,55.4,81.1,51.9,34.0,97,70,34,29.44,29.27,10,2,13,0.21
2013-4-27,95.0,71.4,57.2,93.0,66.0,48.1,98,83,67,29.36,29.27,7,1,11,0.04
2013-4-28,83.3,67.4,52.9,59.1,50.7,46.6,94,59,29,29.30,29.12,8,1,10,0.00
2013-4-29,89.2,76.1,61.7,70.8,53.6,42.5,95,52,23,29.12,29.00,10,4,16,0.00
2013-4-30,86.4,74.7,62.4,58.4,50.8,42.8,85,47,23,29.09,29.00,10,3,17,0.00
2013-5-1,85.8,74.1,57.9,62.0,55.5,40.6,87,55,33,29.36,29.09,9,3,15,0.00
2013-5-2,57.7,46.9,39.9,48.9,40.1,34.4,96,78,53,29.65,29.36,10,5,18,0.20
2013-5-3,62.4,50.7,38.7,38.3,28.2,21.5,90,47,25,29.59,29.24,11,3,20,0.00
2013-5-4,53.6,47.5,42.8,52.0,40.0,28.9,95,76,52,29.33,29.18,9,2,13,0.08
2013-5-5,62.2,55.1,48.6,56.5,47.6,43.2,95,77,52,29.42,29.30,6,1,10,0.00
2013-5-6,81.9,64.9,53.6,80.6,56.3,45.1,98,77,38,29.39,29.27,5,0,8,0.00
2013-5-7,85.5,71.7,61.9,83.3,54.7,40.0,97,62,25,29.36,29.24,6,1,8,0.00
2013-5-8,85.5,72.2,59.9,74.1,51.1,43.4,94,51,29,29.30,29.15,10,2,17,0.34
2013-5-9,88.3,74.6,63.9,86.4,69.4,55.7,96,85,52,29.24,29.12,10,1,17,0.63
2013-5-10,73.6,69.4,58.5,67.2,61.7,46.6,92,78,41,29.36,29.21,7,0,11,0.21
2013-5-11,84.6,70.7,51.8,82.8,51.1,30.1,97,56,23,29.50,29.33,10,2,15,0.00
2013-5-12,74.8,62.2,47.1,56.1,38.4,30.5,95,48,23,29.56,29.39,6,1,9,0.00
2013-5-13,92.7,73.9,55.9,53.6,45.8,37.9,67,40,21,29.42,29.27,7,2,10,0.00
2013-5-14,91.2,77.8,60.3,52.9,47.4,42.9,62,36,23,29.33,29.18,9,3,15,0.00
2013-5-15,95.2,76.0,68.7,93.2,67.2,46.6,95,76,41,29.24,29.09,10,2,15,0.66
2013-5-16,82.0,76.4,70.2,80.5,68.9,55.4,95,79,43,29.15,29.06,6,0,9,0.00
2013-5-17,98.2,82.6,71.8,95.9,75.4,61.4,95,80,52,29.21,29.12,6,0,8,0.00
2013-5-18,98.6,85.5,70.3,96.4,75.6,55.0,94,74,48,29.15,29.00,12,3,19,0.00
2013-5-19,86.0,79.7,74.3,84.4,68.7,62.7,95,70,53,29.15,28.88,10,3,17,0.25
2013-5-20,86.0,77.6,71.2,76.2,68.8,61.0,89,75,54,29.06,28.91,9,1,15,0.05
2013-5-21,83.3,72.6,64.2,82.0,68.7,54.1,96,88,68,29.18,28.94,9,1,16,0.57
2013-5-22,97.5,78.9,66.4,95.1,63.3,45.8,96,64,29,29.21,29.09,5,1,10,0.00
2013-5-23,92.8,77.6,64.2,90.7,74.1,51.7,97,89,64,29.42,29.21,7,0,11,0.33
2013-5-24,99.1,80.5,67.5,96.7,69.0,55.7,96,69,49,29.47,29.36,8,2,12,0.00
2013-5-25,85.5,75.3,65.5,71.2,60.7,51.8,86,62,42,29.44,29.27,9,3,15,0.00
2013-5-26,86.4,78.4,72.0,75.3,65.8,60.1,90,67,45,29.33,29.21,10,4,17,0.00
2013-5-27,84.9,79.8,71.8,78.3,66.3,60.7,91,65,46,29.21,29.03,12,5,20,0.00
2013-5-28,84.0,78.4,74.8,68.2,63.3,59.2,77,61,45,29.09,29.03,11,5,17,0.00
2013-5-29,89.1,76.6,68.9,86.9,66.4,58.1,94,71,60,29.12,28.97,10,4,17,0.17
2013-5-30,104.0,87.4,72.3,99.9,81.5,60.8,95,84,61,29.06,28.94,14,4,22,1.32
2013-5-31,90.3,83.1,76.1,88.0,70.4,62.6,93,67,47,29.06,28.88,13,4,25,0.00
2013-6-1,105.1,81.4,64.4,99.9,66.5,47.1,97,65,32,29.30,28.97,8,1,12,0.10
2013-6-2,77.2,66.9,59.7,62.9,51.7,47.2,89,60,38,29.36,29.27,8,1,11,0.00
2013-6-3,82.9,73.5,61.9,75.9,59.9,53.4,96,66,39,29.33,29.12,8,2,12,0.00
2013-6-4,92.1,78.2,70.2,90.5,66.3,57.4,95,69,40,29.27,29.03,14,2,26,0.40
2013-6-5,101.5,82.0,70.3,98.3,71.4,58.4,95,73,40,29.30,29.15,10,2,13,0.67
2013-6-6,81.3,73.2,62.2,70.5,56.8,45.6,91,61,31,29.27,29.18,8,2,12,0.00
2013-6-7,84.0,75.0,63.9,81.5,56.2,45.0,97,58,29,29.30,29.18,8,1,12,0.00
2013-6-8,84.6,74.8,64.8,67.5,57.4,49.3,93,58,32,29.21,29.09,9,2,13,0.00
2013-6-9,92.1,79.7,68.2,65.2,55.8,48.4,86,47,23,29.21,29.06,8,1,12,0.00
2013-6-10,97.7,83.9,69.4,66.8,61.5,55.2,80,51,27,29.21,29.12,7,2,10,0.00
2013-6-11,95.7,85.1,73.4,68.8,63.6,57.3,77,51,30,29.27,29.15,8,3,13,0.00
2013-6-12,97.3,86.0,77.4,71.0,66.0,59.0,80,54,30,29.24,29.15,10,3,14,0.00
2013-6-13,99.7,85.7,76.8,74.1,64.9,60.5,86,53,29,29.33,29.18,6,1,8,0.00
2013-6-14,97.7,86.2,75.2,76.7,68.4,61.1,90,58,31,29.27,29.15,7,2,13,0.00
2013-6-15,88.5,82.8,76.5,83.2,75.9,64.8,92,81,50,29.30,29.21,9,1,14,0.08
2013-6-16,98.6,89.2,74.7,96.0,81.0,64.6,95,80,40,29.27,29.15,13,1,24,1.88
2013-6-17,99.5,82.8,72.5,97.1,74.5,60.3,95,78,51,29.27,29.12,8,1,12,0.54
2013-6-18,96.3,85.3,72.7,94.2,69.0,53.1,96,63,29,29.33,29.21,7,1,11,0.00
2013-6-19,91.6,82.0,71.6,89.8,67.5,57.7,96,65,38,29.33,29.21,9,2,14,0.00
2013-6-20,94.1,83.7,74.8,72.1,68.2,64.5,79,61,41,29.30,29.18,9,4,17,0.00
2013-6-21,94.3,85.2,78.4,75.0,67.2,57.7,85,58,31,29.30,29.21,8,3,15,0.00
2013-6-22,93.6,84.4,76.8,72.5,65.0,55.7,85,55,30,29.30,29.15,10,3,17,0.00
2013-6-23,94.3,85.2,77.9,71.9,66.0,59.1,81,55,32,29.24,29.15,10,4,17,0.00
2013-6-24,93.6,84.4,77.2,71.9,65.6,55.9,82,57,31,29.30,29.18,9,4,15,0.00
2013-6-25,91.0,84.1,78.3,72.1,67.6,62.7,81,59,41,29.21,29.06,10,4,15,0.00
2013-6-26,97.9,87.1,78.3,73.9,68.0,63.1,76,55,38,29.18,29.09,9,2,12,0.00
2013-6-27,99.7,89.9,80.8,81.7,70.1,56.3,89,56,35,29.24,29.12,8,1,10,0.00
2013-6-28,99.3,87.4,76.8,66.5,59.4,50.4,68,41,24,29.27,29.09,7,2,10,0.00
2013-6-29,94.5,82.6,68.5,59.6,50.9,44.6,71,36,21,29.21,29.09,10,2,15,0.00
2013-6-30,86.0,76.8,68.4,54.1,49.2,45.8,60,39,29,29.30,29.15,10,3,18,0.00
2013-7-1,87.4,75.8,63.5,57.0,49.1,40.1,74,42,22,29.36,29.27,9,2,15,0.00
2013-7-2,89.4,74.5,58.6,58.5,48.1,39.5,87,45,21,29.39,29.30,7,1,12,0.00
2013-7-3,88.3,74.5,60.6,66.1,50.8,41.5,93,50,21,29.36,29.27,6,1,10,0.00
2013-7-4,92.5,78.2,63.9,66.5,56.2,50.6,91,52,27,29.33,29.21,8,2,13,0.00
2013-7-5,93.6,80.3,67.5,64.2,57.6,49.8,85,50,24,29.30,29.15,6,1,11,0.00
2013-7-6,90.5,81.0,71.6,62.7,58.5,55.5,68,48,32,29.27,29.18,9,2,15,0.00
2013-7-7,95.9,84.3,73.8,65.2,60.6,55.5,68,47,28,29.30,29.21,8,2,12,0.00
2013-7-8,96.8,85.8,74.1,69.1,65.9,60.5,80,54,32,29.36,29.27,8,2,14,0.00
2013-7-9,100.8,88.8,77.5,68.8,64.3,59.9,74,47,27,29.33,29.21,7,2,12,0.00
2013-7-10,104.2,89.3,77.4,70.0,61.8,57.2,67,42,22,29.30,29.15,4,0,10,0.00
2013-7-11,101.8,87.8,78.6,72.7,68.2,60.3,80,56,27,29.27,29.15,6,1,9,0.00
2013-7-21,87.6,84.3,81.9,71.6,70.4,68.9,67,63,58,29.18,29.09,4,0,7,0.00
2013-7-22,98.2,86.6,77.7,78.7,69.1,63.5,86,58,34,29.18,29.06,7,1,11,0.17
2013-7-23,103.1,90.5,75.2,85.5,67.9,61.6,95,51,28,29.24,29.06,17,1,24,0.78
2013-7-24,96.4,87.0,76.6,94.4,74.1,59.5,96,69,35,29.30,29.12,6,1,10,0.29
2013-7-25,96.6,84.9,78.8,94.2,74.1,61.8,95,72,44,29.36,29.27,5,0,9,0.00
2013-7-26,97.5,84.1,75.4,95.0,78.0,64.6,96,83,57,29.30,29.21,8,1,10,0.53
2013-7-27,97.3,84.7,71.4,95.0,68.1,50.4,97,63,28,29.36,29.24,6,1,9,0.00
2013-7-28,90.1,78.1,69.4,65.1,60.0,54.8,74,55,39,29.30,29.21,7,2,10,0.00
2013-7-29,90.0,81.9,73.6,80.9,69.3,64.9,91,67,49,29.30,29.18,9,3,15,0.18
2013-7-30,140.0,98.4,81.5,99.9,81.5,65.4,95,72,40,29.30,29.24,6,0,8,0.71
2013-7-31,96.1,88.3,79.2,93.7,73.2,62.1,93,64,37,29.36,29.27,6,1,12,0.00
2013-8-1,95.4,84.7,76.8,77.6,65.5,54.2,89,58,27,29.36,29.27,5,1,9,0.00
2013-8-2,96.8,90.8,84.7,75.6,70.8,67.1,65,53,41,29.21,29.09,7,2,12,0.00
2013-8-3,87.6,83.2,79.3,84.5,72.9,64.6,91,72,49,29.33,29.15,9,2,13,0.04
2013-8-4,91.9,85.6,80.2,84.7,76.0,68.0,91,74,54,29.36,29.21,8,2,14,0.00
2013-8-5,102.2,90.1,80.8,82.7,71.1,63.4,90,58,30,29.24,29.09,7,2,11,0.00
2013-8-6,101.3,90.2,78.4,72.7,65.9,61.6,78,47,28,29.15,29.06,8,2,11,0.00
2013-8-7,97.5,87.9,79.2,75.7,68.4,64.2,73,54,37,29.18,29.09,7,2,12,0.00
2013-8-8,94.3,84.2,76.5,92.3,75.0,67.9,95,75,57,29.24,29.12,6,1,10,0.15
2013-8-9,138.9,96.9,79.2,99.9,80.6,65.6,94,76,50,29.33,29.18,8,1,11,0.84
2013-8-10,88.9,80.6,74.1,82.8,68.6,61.3,93,69,41,29.39,29.30,7,2,10,0.00
2013-8-11,95.5,84.6,77.2,82.2,70.5,59.6,91,66,32,29.36,29.27,4,0,8,0.00
2013-8-12,89.6,83.9,77.7,86.8,76.1,66.9,92,78,55,29.36,29.21,9,1,13,0.05
2013-8-13,140.0,101.8,76.1,99.9,84.1,61.3,93,80,52,29.33,29.24,8,1,14,0.70
2013-8-14,88.2,77.8,70.2,75.8,61.6,52.6,91,60,35,29.42,29.30,6,1,10,0.00
2013-8-15,103.3,76.3,68.4,99.4,60.7,54.5,93,61,37,29.39,29.27,7,1,13,0.61
2013-8-16,140.0,96.8,71.2,99.9,73.8,55.1,93,64,35,29.39,29.24,6,1,11,0.10
2013-8-17,84.7,76.1,69.3,77.0,58.5,49.2,92,58,31,29.44,29.33,7,1,10,0.00
2013-8-18,105.4,83.5,71.2,99.9,68.3,52.4,94,65,31,29.42,29.30,6,1,10,0.00
2013-8-19,113.0,87.1,74.8,99.9,72.4,57.3,93,66,34,29.39,29.27,7,1,10,0.00
2013-8-20,94.5,83.6,73.2,92.1,67.0,55.5,94,61,30,29.36,29.27,7,1,10,0.00
2013-8-21,96.6,85.6,73.0,93.5,66.8,54.8,93,59,27,29.36,29.27,6,1,9,0.00
2013-8-22,95.4,85.2,75.0,83.2,66.6,58.6,93,58,31,29.36,29.27,7,1,9,0.00
2013-8-23,94.8,82.1,75.7,74.2,68.4,60.1,86,65,33,29.33,29.24,6,1,9,0.00
2013-8-24,106.3,88.7,77.9,99.9,73.2,59.7,93,64,32,29.39,29.30,8,1,10,0.00
2013-8-25,96.6,86.4,76.5,86.6,69.9,61.0,93,62,32,29.44,29.36,7,1,11,0.00
2013-8-26,94.3,85.4,77.5,81.4,68.2,59.1,92,60,32,29.47,29.33,7,2,11,0.00
2013-8-27,94.5,83.3,73.0,76.1,65.7,59.2,92,59,32,29.39,29.27,8,2,11,0.00
2013-8-28,96.3,88.0,77.9,88.2,70.9,60.9,93,62,33,29.36,29.27,8,1,11,0.00
2013-8-29,101.8,88.0,78.1,75.3,66.2,56.9,85,54,25,29.33,29.24,7,1,9,0.00
2013-8-30,102.9,89.0,77.5,77.1,65.6,57.8,89,51,24,29.30,29.12,6,1,9,0.00
2013-8-31,102.9,88.9,75.7,71.3,64.3,59.4,74,48,25,29.18,29.06,5,1,8,0.00
2013-9-1,95.2,84.4,75.0,71.7,66.1,60.6,72,56,37,29.18,29.06,8,1,10,0.00
2013-9-2,91.6,80.9,69.6,75.0,59.1,51.8,84,51,27,29.30,29.18,9,2,12,0.00
2013-9-3,93.6,81.5,68.0,88.0,60.4,48.7,95,56,23,29.33,29.24,7,1,11,0.00
2013-9-4,96.3,81.6,67.3,77.5,61.5,53.4,94,56,27,29.42,29.30,5,1,9,0.00
2013-9-5,97.2,82.8,70.9,75.0,60.1,52.7,93,52,26,29.44,29.33,6,1,8,0.00
2013-9-6,98.1,82.5,68.2,63.3,58.6,54.1,78,48,26,29.39,29.24,7,1,12,0.00
2013-9-7,101.5,85.5,71.6,64.2,58.9,52.6,69,44,21,29.30,29.18,7,1,10,0.00
2013-9-8,99.9,86.2,72.3,66.7,60.9,54.3,79,47,23,29.24,29.15,8,1,11,0.00
2013-9-9,97.7,84.7,69.8,64.7,57.4,51.3,72,43,23,29.27,29.18,8,2,13,0.00
2013-9-10,97.5,81.9,70.5,65.8,59.0,49.8,79,50,22,29.39,29.24,9,1,13,0.00
2013-9-11,74.8,73.8,73.2,69.0,68.1,66.3,84,83,79,29.36,29.33,0,0,0,0.00
2013-9-12,82.2,79.3,73.4,68.3,65.7,63.2,84,63,53,29.36,29.30,7,1,10,0.00
2013-9-13,90.1,78.4,69.1,69.0,53.5,43.2,81,45,26,29.36,29.24,8,2,12,0.00
2013-9-14,87.8,75.5,63.3,55.0,50.9,46.3,66,44,30,29.33,29.21,8,2,11,0.00
2013-9-15,92.5,79.0,66.2,65.0,54.3,46.9,65,44,30,29.33,29.24,7,2,10,0.00
2013-9-16,89.6,78.6,74.5,71.3,64.6,55.9,85,64,34,29.44,29.30,8,2,11,0.00
2013-9-17,92.5,79.7,73.6,90.1,71.0,60.5,94,77,44,29.39,29.24,9,0,11,0.17
2013-9-18,94.1,82.8,75.7,75.8,66.7,58.2,91,62,34,29.27,29.15,9,2,17,0.00
2013-9-19,100.8,81.9,75.0,98.0,72.8,62.1,94,76,39,29.24,29.12,8,1,12,0.70
2013-9-20,140.0,91.1,62.2,99.9,73.9,47.6,95,74,42,29.30,29.21,8,1,13,0.34
2013-9-21,120.6,80.9,62.6,99.9,63.4,42.8,97,63,26,29.33,29.18,6,1,10,0.00
2013-9-22,101.3,77.0,59.4,98.5,58.2,40.5,95,59,24,29.27,29.12,7,1,10,0.00
2013-9-23,82.4,70.8,59.2,73.7,52.3,44.6,95,56,29,29.18,29.06,9,2,15,0.00
2013-9-24,84.4,71.3,61.3,63.8,51.8,46.6,88,54,30,29.21,29.12,8,2,13,0.00
2013-9-25,94.8,78.4,65.8,92.3,61.1,48.7,95,61,28,29.21,29.06,5,0,7,0.00
2013-9-26,93.7,78.5,65.1,64.2,56.4,50.0,87,51,25,29.18,29.09,9,3,15,0.00
2013-9-27,90.5,79.0,67.6,63.3,55.9,49.9,83,49,27,29.27,29.09,11,4,15,0.00
2013-9-28,129.0,84.9,66.6,99.9,74.7,57.7,97,78,54,29.36,29.12,8,2,13,1.31
2013-9-29,133.9,85.0,59.0,99.9,68.9,41.1,98,69,30,29.36,29.21,6,1,10,0.00
2013-9-30,97.2,78.6,65.8,94.8,63.0,46.3,95,65,29,29.21,29.09,8,1,11,0.00
2013-10-1,123.8,87.9,72.7,99.9,73.3,53.8,94,69,32,29.24,29.12,8,2,13,0.00
2013-10-2,115.5,87.5,76.1,99.9,74.7,60.8,93,70,42,29.27,29.12,9,2,13,0.00
2013-10-3,89.1,81.5,75.6,80.0,69.9,61.6,91,70,44,29.18,29.03,10,4,16,0.00
2013-10-4,88.5,81.9,76.8,78.3,67.2,58.8,89,64,38,29.18,29.06,10,4,14,0.00
2013-10-5,97.2,62.7,50.5,93.7,49.0,32.9,96,65,31,29.39,29.15,8,2,13,0.59
2013-10-6,69.1,58.7,46.8,59.9,42.6,31.1,95,61,32,29.33,29.27,8,2,13,0.00
2013-10-7,78.1,63.2,52.2,65.6,44.8,32.4,96,60,21,29.44,29.33,5,0,8,0.00
2013-10-8,80.1,68.3,58.6,78.8,51.8,40.8,97,61,30,29.39,29.30,8,2,15,0.00
2013-10-9,80.4,67.7,54.0,72.0,51.4,45.5,96,60,33,29.36,29.27,8,2,12,0.00
2013-10-10,82.8,70.3,58.1,64.9,54.5,48.0,92,61,33,29.33,29.15,9,2,16,0.00
2013-10-11,83.5,73.8,63.5,75.6,62.7,54.0,89,70,46,29.18,29.06,10,3,13,0.00
2013-10-12,84.9,70.1,60.1,82.3,52.7,43.9,92,57,35,29.42,29.12,10,3,13,0.00
2013-10-13,77.5,69.2,63.9,58.1,51.0,43.3,67,53,46,29.53,29.42,6,1,8,0.00
2013-10-14,140.0,95.2,61.5,99.9,77.8,46.2,95,79,51,29.44,29.18,8,2,13,1.04
2013-10-15,118.4,72.1,55.4,99.9,60.3,37.1,95,70,45,29.36,29.18,8,1,12,0.00
2013-10-16,64.2,55.1,46.8,59.9,39.2,33.3,92,57,36,29.42,29.33,7,1,10,0.00
2013-10-17,83.1,66.1,53.6,81.4,53.5,35.6,96,70,32,29.36,29.24,4,0,7,0.00
2013-10-18,84.2,60.1,50.2,82.1,53.4,38.6,98,80,51,29.42,29.27,8,2,15,0.12
2013-10-19,73.0,58.5,46.8,71.8,43.7,29.7,97,63,27,29.44,29.27,6,0,9,0.04
2013-10-20,72.0,57.4,45.1,43.9,37.8,32.0,83,52,25,29.30,29.12,8,2,13,0.00
2013-10-21,61.9,53.8,43.7,52.7,41.5,30.5,94,66,34,29.39,29.21,8,2,15,0.00
2013-10-22,80.1,63.0,49.8,78.5,47.3,36.2,97,62,29,29.36,29.27,7,1,10,0.00
2013-10-23,69.3,56.7,44.4,58.5,41.6,32.1,92,61,32,29.44,29.27,7,1,11,0.00
2013-10-24,73.0,53.8,45.0,71.8,36.5,23.7,97,55,35,29.65,29.33,11,3,17,0.00
2013-10-25,61.9,49.1,37.6,40.1,30.7,24.7,79,51,30,29.74,29.47,8,1,10,0.00
2013-10-26,76.8,59.6,48.2,75.3,49.1,37.9,96,69,44,29.47,29.36,6,0,9,0.00
2013-10-27,72.9,55.4,40.8,63.0,36.7,28.3,93,55,22,29.39,29.24,4,0,8,0.00
2013-10-28,87.3,69.6,63.9,85.3,60.3,48.8,95,74,44,29.42,29.27,8,2,12,0.00
2013-10-29,81.0,74.6,66.7,78.7,68.4,61.1,93,81,67,29.30,29.21,9,2,15,0.00
2013-10-30,139.8,85.6,70.5,99.9,78.4,64.4,94,87,81,29.27,29.00,9,2,15,1.03
2013-10-31,140.0,80.8,50.7,99.9,64.6,38.2,93,72,37,29.09,28.85,8,2,18,0.45
2013-11-1,95.9,67.1,46.8,93.4,50.4,32.8,95,61,26,29.33,29.06,8,1,14,0.00
2013-11-2,64.2,51.4,42.3,50.4,34.2,24.5,93,57,26,29.53,29.33,8,1,15,0.00
2013-11-3,72.7,59.5,47.8,71.5,43.5,32.1,97,60,33,29.47,29.24,10,3,15,0.00
2013-11-4,67.1,60.7,54.0,63.4,49.3,36.9,89,67,47,29.39,29.21,8,4,13,0.00
2013-11-5,140.0,118.7,66.9,99.9,95.6,63.4,94,88,84,29.36,29.18,9,3,14,0.63
2013-11-6,93.2,55.5,42.4,91.2,46.9,29.6,96,75,40,29.62,29.27,8,2,15,0.29
2013-11-7,98.1,65.2,46.6,95.3,52.4,27.9,97,69,24,29.71,29.56,5,0,6,0.00
2013-11-8,72.1,61.8,50.7,70.9,41.5,27.8,96,53,24,29.59,29.33,10,3,15,0.00
2013-11-9,70.7,58.0,48.9,49.3,39.8,34.6,84,53,28,29.53,29.33,5,1,8,0.00
2013-11-10,72.0,61.5,53.1,62.6,49.3,38.9,93,68,33,29.62,29.50,4,0,6,0.00
2013-11-11,75.2,61.7,43.0,69.2,49.7,29.1,94,68,35,29.74,29.42,13,2,20,0.00
2013-11-12,42.8,34.5,25.0,29.1,15.2,10.0,75,46,31,30.04,29.74,12,4,19,0.00
2013-11-13,54.0,39.4,24.8,41.1,21.2,15.1,93,53,27,29.95,29.56,8,2,11,0.00
2013-11-14,57.6,44.8,30.6,30.2,22.9,17.4,64,43,28,29.56,29.27,9,3,13,0.00
2013-11-15,67.5,59.7,45.0,65.0,50.2,31.2,94,73,43,29.27,29.06,9,3,12,0.13
2013-11-16,75.4,70.6,67.3,68.6,60.6,51.6,91,72,45,29.09,28.82,13,6,22,0.00
2013-11-17,76.6,65.5,42.8,67.0,39.4,18.9,81,43,21,29.39,28.82,10,1,13,0.00
2013-11-18,67.1,51.6,35.6,37.8,26.7,20.8,86,41,22,29.53,29.39,6,1,10,0.00
2013-11-19,59.9,55.0,47.5,27.1,25.7,23.2,42,32,26,29.47,29.27,9,4,14,0.00
2013-11-20,61.0,56.0,47.8,40.7,32.3,24.1,48,41,35,29.27,29.15,10,4,17,0.00
2013-11-21,69.4,56.8,37.8,65.3,50.6,31.7,94,81,47,29.65,29.21,10,3,19,0.00
2013-11-22,40.3,35.0,32.2,36.1,27.5,20.9,86,74,57,29.80,29.65,10,4,16,0.08
2013-11-23,40.5,34.8,27.3,27.1,16.5,6.8,74,48,31,29.95,29.80,12,5,17,0.00
2013-11-24,32.2,28.4,23.9,12.2,9.1,6.0,52,44,41,29.92,29.56,9,2,14,0.00
2013-11-25,37.6,34.9,30.9,31.4,23.6,11.5,78,63,42,29.59,29.44,5,1,8,0.00
2013-11-26,51.1,39.4,28.9,35.3,21.8,7.8,87,51,33,29.65,29.42,14,3,19,0.00
2013-11-27,42.4,30.4,22.1,12.5,7.9,4.8,52,39,29,29.74,29.53,8,1,11,0.00
2013-11-28,60.6,41.5,25.9,27.7,19.8,10.1,57,43,28,29.68,29.50,7,1,10,0.00
2013-11-29,58.8,43.1,27.0,41.7,24.3,18.1,93,52,26,29.74,29.50,8,2,10,0.00
2013-11-30,64.0,50.6,38.8,58.0,38.3,24.5,94,65,40,29.50,29.36,8,2,15,0.00
2013-12-1,84.2,65.4,58.8,82.2,62.6,52.5,97,91,79,29.36,29.15,4,0,7,0.00
2013-12-2,84.4,67.4,53.2,82.8,62.0,40.2,96,84,49,29.15,28.91,6,0,8,0.00
2013-12-3,140.0,89.4,56.7,99.9,75.0,46.3,96,83,58,28.91,28.80,7,1,10,0.00
2013-12-4,125.4,61.9,30.9,99.9,51.3,12.1,95,74,45,29.33,28.80,9,3,17,0.00
2013-12-5,31.1,25.5,22.5,19.8,10.8,5.8,79,54,41,29.56,29.33,10,5,18,0.00
2013-12-6,35.1,24.3,13.8,31.4,12.4,-2.5,88,62,43,29.83,29.50,10,5,15,0.00
2013-12-7,23.5,17.8,9.9,8.4,0.9,-5.7,52,47,43,29.92,29.50,8,3,12,0.00
2013-12-8,48.9,34.3,23.4,47.0,28.0,8.8,93,78,53,29.50,29.27,7,2,10,0.00
2013-12-9,36.0,25.1,21.2,32.8,14.3,6.7,88,64,46,29.65,29.44,9,3,13,0.00
2013-12-10,39.7,27.3,18.0,23.3,14.9,7.8,88,62,39,29.71,29.50,6,1,11,0.00
2013-12-11,43.2,30.9,20.5,40.5,18.9,10.3,92,63,41,29.86,29.50,12,2,15,0.00
2013-12-12,44.2,34.1,21.2,34.0,22.2,14.9,91,64,40,29.83,29.44,8,2,11,0.00
2013-12-13,93.2,51.7,36.7,90.5,45.9,23.2,95,81,56,29.44,29.09,9,3,14,0.00
2013-12-14,125.4,50.8,29.1,99.9,41.2,19.3,98,75,47,29.53,29.12,9,3,18,0.00
2013-12-15,61.7,48.4,37.4,53.5,31.6,21.6,95,58,26,29.53,29.36,7,1,9,0.00
2013-12-16,71.4,48.8,33.1,32.6,27.5,21.9,79,48,22,29.42,29.30,6,1,8,0.00
2013-12-17,63.1,44.6,34.3,44.2,29.6,23.2,92,61,26,29.56,29.39,9,1,13,0.00
2013-12-18,70.0,54.7,36.7,56.0,35.9,29.0,95,55,26,29.50,29.15,11,3,15,0.00
2013-12-19,66.4,61.0,54.5,60.7,49.9,38.9,83,67,51,29.15,28.91,10,5,16,0.00
2013-12-20,68.9,40.8,31.5,65.2,32.2,17.9,91,72,55,29.24,28.91,10,3,15,0.04
2013-12-21,92.7,58.3,40.1,90.3,56.4,37.4,95,93,90,29.09,28.82,0,0,0,0.00
2013-12-22,93.4,42.0,29.8,90.7,37.8,23.2,97,85,76,29.65,29.06,0,0,0,0.00
2013-12-23,35.2,28.5,24.8,32.0,22.1,16.1,88,77,60,29.83,29.62,0,0,0,0.00
2013-12-24,25.9,23.5,21.6,21.7,19.2,17.2,85,83,82,29.83,29.77,0,0,0,0.00
2014-1-1,24.4,21.9,19.4,18.8,13.3,8.4,85,69,60,29.77,29.47,10,6,16,0.00
2014-1-2,35.1,23.5,13.8,13.0,7.5,1.7,63,50,39,29.74,29.56,10,2,13,0.00